FW6537 Weather Reports


time (UTC)temp
F
wind
direction
speed
knots
gust
knots
rain 1hr
in
rain 24hr
in
rain mn
in
humidity
%
barometer
mb
20260904110128 67 73 0.0 1.7 0.00 0.00 0.00 91 1013.0
20260904104625 67 89 0.0 1.7 0.00 0.00 0.00 91 1012.8
20260904103140 67 84 0.0 0.9 0.00 0.00 0.00 91 1012.9
20260904101632 67 98 0.0 0.0 0.00 0.00 0.00 91 1012.6
20260904100126 68 98 0.0 0.9 0.00 0.00 0.00 90 1012.3
20260904094640 68 95 0.0 2.6 0.00 0.00 0.00 90 1012.2
20260904093138 69 95 0.0 1.7 0.00 0.00 0.00 89 1012.1
20260904091655 69 89 0.9 6.1 0.00 0.00 0.00 89 1012.2
20260904090134 69 101 0.0 1.7 0.00 0.00 0.00 89 1012.1
20260904084630 69 117 0.0 0.9 0.00 0.00 0.00 90 1012.1
20260904083122 69 96 0.0 2.6 0.00 0.00 0.00 89 1012.0
20260904081646 69 99 0.0 3.5 0.00 0.00 0.00 90 1011.8
20260904080131 69 139 0.0 1.7 0.00 0.00 0.00 92 1011.7
20260904074627 69 95 0.0 0.9 0.00 0.00 0.00 94 1011.6
20260904073125 69 78 0.0 0.9 0.00 0.00 0.00 95 1011.5
20260904071625 68 78 0.0 0.9 0.00 0.00 0.00 95 1011.3
20260904070124 68 73 0.0 0.0 0.00 0.00 0.00 95 1011.3
20260904064639 68 73 0.0 0.0 0.00 0.00 0.00 94 1011.2
20260904063134 68 73 0.0 0.0 0.00 0.00 0.00 94 1011.3
20260904061625 69 72 0.0 0.0 0.00 0.00 0.00 94 1011.3
20260904060136 69 73 0.0 0.0 0.00 0.00 0.00 94 1011.7
20260904054633 69 73 0.0 0.9 0.00 0.00 0.00 93 1011.8
20260904053147 69 72 0.0 0.9 0.00 0.00 0.00 94 1012.0
20260904051622 69 72 0.0 0.9 0.00 0.00 0.00 94 1012.0
20260904050138 69 94 0.0 0.0 0.00 0.00 0.00 94 1012.0
20260904044636 69 94 0.0 0.9 0.00 0.00 0.00 94 1012.2
20260904043135 70 100 0.0 0.9 0.00 0.00 0.00 94 1012.0
20260904041626 70 120 0.0 0.0 0.00 0.00 0.00 94 1011.8
20260904040142 70 120 0.0 0.0 0.00 0.00 0.00 94 1011.8
20260904034634 70 134 0.0 0.0 0.00 0.00 0.00 93 1011.8
20260904033129 70 134 0.0 0.0 0.00 0.00 0.00 93 1011.9
20260904031648 71 134 0.0 0.0 0.00 0.00 0.00 92 1012.0
20260904030125 71 134 0.0 0.0 0.00 0.00 0.00 92 1012.1
20260904024644 71 134 0.0 0.0 0.00 0.03 0.00 91 1012.1
20260904021636 72 134 0.0 0.0 0.00 0.03 0.00 90 1012.1
20260904020139 72 134 0.0 0.0 0.00 0.03 0.00 88 1012.3
20260904014645 73 134 0.0 0.0 0.00 0.23 0.00 87 1012.3
20260904013138 73 134 0.0 0.0 0.00 0.23 0.00 86 1012.1
20260904011639 73 135 0.0 0.0 0.00 0.23 0.00 85 1012.2
20260904010138 74 135 0.0 0.0 0.00 0.23 0.00 83 1012.3
20260904004636 75 135 0.0 0.0 0.00 0.23 0.00 81 1012.3
20260904003136 75 135 0.0 0.0 0.00 0.23 0.00 79 1012.3
20260904001650 75 135 0.0 0.0 0.00 0.23 0.00 77 1012.0